Time,TemperatureF,DewpointF,PressureIn,WindDirection,WindDirectionDegrees,WindSpeedMPH,WindSpeedGustMPH,Humidity,HourlyPrecipIn,Conditions,Clouds,dailyrainin,SoftwareType,DateUTC
2013-01-25 00:00:00,63.8,58.2,29.97,ENE,77,3.0,-999.0,82,0.00,,,0.00,PyWeather,2013-01-25 10:00:00,
2013-01-25 00:02:00,64.0,58.4,29.97,ENE,77,3.0,-999.0,82,0.00,,,0.00,PyWeather,2013-01-25 10:02:00,
2013-01-25 00:03:00,63.7,58.1,29.96,ENE,78,3.0,-999.0,82,0.00,,,0.00,PyWeather,2013-01-25 10:03:00,
2013-01-25 00:05:00,63.6,58.0,29.96,ENE,77,2.0,-999.0,82,0.00,,,0.00,PyWeather,2013-01-25 10:05:00,
2013-01-25 00:07:00,63.9,58.3,29.97,ENE,77,3.0,-999.0,82,0.00,,,0.00,PyWeather,2013-01-25 10:07:00,
2013-01-25 00:09:00,63.5,58.0,29.96,ENE,78,2.0,-999.0,82,0.00,,,0.00,PyWeather,2013-01-25 10:09:00,
2013-01-25 00:11:00,63.5,58.0,29.96,ENE,77,2.0,-999.0,82,0.00,,,0.00,PyWeather,2013-01-25 10:11:00,
2013-01-25 00:12:00,63.8,58.2,29.96,ENE,78,3.0,-999.0,82,0.00,,,0.00,PyWeather,2013-01-25 10:12:00,
2013-01-25 00:13:00,63.4,57.9,29.96,ENE,78,2.0,-999.0,82,0.00,,,0.00,PyWeather,2013-01-25 10:13:00,
2013-01-25 00:14:00,63.4,57.9,29.96,ENE,78,2.0,-999.0,82,0.00,,,0.00,PyWeather,2013-01-25 10:14:00,
2013-01-25 00:15:00,63.3,57.8,29.96,ENE,77,2.0,-999.0,82,0.00,,,0.00,PyWeather,2013-01-25 10:15:00,
2013-01-25 00:17:00,63.7,58.1,29.96,ENE,78,3.0,-999.0,82,0.00,,,0.00,PyWeather,2013-01-25 10:17:00,
2013-01-25 00:18:00,63.2,57.7,29.96,ENE,77,2.0,-999.0,82,0.00,,,0.00,PyWeather,2013-01-25 10:18:00,
2013-01-25 00:19:00,63.2,57.7,29.96,ENE,78,2.0,-999.0,82,0.00,,,0.00,PyWeather,2013-01-25 10:19:00,
2013-01-25 00:20:00,63.2,57.7,29.96,ENE,78,2.0,-999.0,82,0.00,,,0.00,PyWeather,2013-01-25 10:20:00,
2013-01-25 00:21:00,63.2,57.7,29.96,ENE,78,2.0,-999.0,82,0.00,,,0.00,PyWeather,2013-01-25 10:21:00,
2013-01-25 00:22:00,63.5,58.0,29.96,ENE,77,2.0,-999.0,82,0.00,,,0.00,PyWeather,2013-01-25 10:22:00,
2013-01-25 00:23:00,63.2,57.7,29.96,ENE,77,2.0,-999.0,82,0.00,,,0.00,PyWeather,2013-01-25 10:23:00,
2013-01-25 00:24:00,63.2,57.7,29.96,ENE,77,2.0,-999.0,82,0.00,,,0.00,PyWeather,2013-01-25 10:24:00,
2013-01-25 00:25:00,63.2,57.7,29.96,ENE,77,2.0,-999.0,82,0.00,,,0.00,PyWeather,2013-01-25 10:25:00,
2013-01-25 00:26:00,63.1,57.6,29.96,ENE,77,2.0,-999.0,82,0.00,,,0.00,PyWeather,2013-01-25 10:26:00,
2013-01-25 00:27:00,63.4,57.9,29.96,ENE,78,2.0,-999.0,82,0.00,,,0.00,PyWeather,2013-01-25 10:27:00,
2013-01-25 00:29:00,63.1,57.6,29.96,ENE,78,2.0,-999.0,82,0.00,,,0.00,PyWeather,2013-01-25 10:29:00,
2013-01-25 00:30:00,63.1,57.6,29.96,ENE,78,2.0,-999.0,82,0.00,,,0.00,PyWeather,2013-01-25 10:30:00,
2013-01-25 00:31:00,63.1,57.6,29.96,ENE,77,2.0,-999.0,82,0.00,,,0.00,PyWeather,2013-01-25 10:31:00,
2013-01-25 00:32:00,63.2,57.7,29.96,ENE,78,2.0,-999.0,82,0.00,,,0.00,PyWeather,2013-01-25 10:32:00,
2013-01-25 00:33:00,63.0,57.5,29.96,ENE,77,2.0,-999.0,82,0.00,,,0.00,PyWeather,2013-01-25 10:33:00,
2013-01-25 00:34:00,62.9,57.4,29.96,ENE,77,2.0,-999.0,82,0.00,,,0.00,PyWeather,2013-01-25 10:34:00,
2013-01-25 00:35:00,62.9,57.4,29.96,ENE,78,2.0,-999.0,82,0.00,,,0.00,PyWeather,2013-01-25 10:35:00,
2013-01-25 00:37:00,63.2,57.7,29.96,ENE,78,2.0,-999.0,82,0.00,,,0.00,PyWeather,2013-01-25 10:37:00,
2013-01-25 00:42:00,63.1,57.6,29.96,ENE,78,2.0,-999.0,82,0.00,,,0.00,PyWeather,2013-01-25 10:42:00,
2013-01-25 00:47:00,63.0,57.5,29.96,ENE,77,2.0,-999.0,82,0.00,,,0.00,PyWeather,2013-01-25 10:47:00,
2013-01-25 00:52:00,62.9,57.4,29.96,ENE,78,1.0,-999.0,82,0.00,,,0.00,PyWeather,2013-01-25 10:52:00,
2013-01-25 00:58:00,62.8,57.6,29.96,ENE,78,0.0,-999.0,83,0.00,,,0.00,PyWeather,2013-01-25 10:58:00,
2013-01-25 01:03:00,62.8,57.6,29.96,ENE,77,0.0,-999.0,83,0.00,,,0.00,PyWeather,2013-01-25 11:03:00,
2013-01-25 01:08:00,62.8,57.6,29.96,ENE,78,1.0,-999.0,83,0.00,,,0.00,PyWeather,2013-01-25 11:08:00,
2013-01-25 01:13:00,62.9,57.7,29.96,ENE,78,2.0,-999.0,83,0.00,,,0.00,PyWeather,2013-01-25 11:13:00,
2013-01-25 01:18:00,62.9,57.7,29.96,ENE,78,2.0,-999.0,83,0.00,,,0.00,PyWeather,2013-01-25 11:18:00,
2013-01-25 01:22:00,63.1,57.9,29.96,ENE,78,2.0,-999.0,83,0.00,,,0.00,PyWeather,2013-01-25 11:22:00,
2013-01-25 01:23:00,63.1,57.9,29.96,ENE,77,3.0,-999.0,83,0.00,,,0.00,PyWeather,2013-01-25 11:23:00,
2013-01-25 01:24:00,63.1,57.9,29.96,ENE,78,2.0,-999.0,83,0.00,,,0.00,PyWeather,2013-01-25 11:24:00,
2013-01-25 01:25:00,63.1,57.9,29.96,ENE,76,3.0,-999.0,83,0.00,,,0.00,PyWeather,2013-01-25 11:25:00,
2013-01-25 01:26:00,63.1,57.9,29.96,ENE,78,3.0,-999.0,83,0.00,,,0.00,PyWeather,2013-01-25 11:26:00,
2013-01-25 01:28:00,63.2,58.3,29.96,ENE,78,3.0,-999.0,84,0.00,,,0.00,PyWeather,2013-01-25 11:28:00,
2013-01-25 01:29:00,63.1,58.2,29.96,ENE,78,3.0,-999.0,84,0.00,,,0.00,PyWeather,2013-01-25 11:29:00,
2013-01-25 01:32:00,63.2,58.3,29.96,ENE,78,3.0,-999.0,84,0.00,,,0.00,PyWeather,2013-01-25 11:32:00,
2013-01-25 01:33:00,63.2,58.0,29.96,ENE,77,2.0,-999.0,83,0.00,,,0.00,PyWeather,2013-01-25 11:33:00,
2013-01-25 01:34:00,63.2,58.0,29.96,ENE,78,3.0,-999.0,83,0.00,,,0.00,PyWeather,2013-01-25 11:34:00,
2013-01-25 01:36:00,63.3,58.4,29.96,East,79,3.0,-999.0,84,0.00,,,0.00,PyWeather,2013-01-25 11:36:00,
2013-01-25 01:38:00,63.1,57.9,29.96,ENE,78,2.0,-999.0,83,0.00,,,0.00,PyWeather,2013-01-25 11:38:00,
2013-01-25 01:39:00,63.4,58.2,29.96,ENE,78,3.0,-999.0,83,0.00,,,0.00,PyWeather,2013-01-25 11:39:00,
2013-01-25 01:40:00,63.5,58.3,29.96,East,79,3.0,-999.0,83,0.00,,,0.00,PyWeather,2013-01-25 11:40:00,
2013-01-25 01:41:00,63.5,58.3,29.95,East,79,3.0,-999.0,83,0.00,,,0.00,PyWeather,2013-01-25 11:41:00,
2013-01-25 01:43:00,63.1,58.2,29.96,ENE,78,3.0,-999.0,84,0.00,,,0.00,PyWeather,2013-01-25 11:43:00,
2013-01-25 01:45:00,63.7,58.5,29.95,East,79,3.0,-999.0,83,0.00,,,0.00,PyWeather,2013-01-25 11:45:00,
2013-01-25 01:46:00,63.6,58.4,29.95,ENE,78,3.0,-999.0,83,0.00,,,0.00,PyWeather,2013-01-25 11:46:00,
2013-01-25 01:48:00,63.2,58.3,29.96,ENE,78,3.0,-999.0,84,0.00,,,0.00,PyWeather,2013-01-25 11:48:00,
2013-01-25 01:53:00,63.4,58.2,29.96,ENE,78,3.0,-999.0,83,0.00,,,0.00,PyWeather,2013-01-25 11:53:00,
2013-01-25 01:58:00,63.6,58.4,29.95,ENE,78,3.0,-999.0,83,0.00,,,0.00,PyWeather,2013-01-25 11:58:00,
2013-01-25 02:03:00,63.7,58.1,29.95,East,80,3.0,-999.0,82,0.00,,,0.00,PyWeather,2013-01-25 12:03:00,
2013-01-25 02:04:00,63.8,57.9,29.95,ENE,78,2.0,-999.0,81,0.00,,,0.00,PyWeather,2013-01-25 12:04:00,
2013-01-25 02:05:00,63.7,57.5,29.94,ENE,78,2.0,-999.0,80,0.00,,,0.00,PyWeather,2013-01-25 12:05:00,
2013-01-25 02:06:00,63.7,57.5,29.94,ENE,78,2.0,-999.0,80,0.00,,,0.00,PyWeather,2013-01-25 12:06:00,
2013-01-25 02:07:00,63.6,57.4,29.94,ENE,78,2.0,-999.0,80,0.00,,,0.00,PyWeather,2013-01-25 12:07:00,
2013-01-25 02:08:00,63.7,58.1,29.95,ENE,78,3.0,-999.0,82,0.00,,,0.00,PyWeather,2013-01-25 12:08:00,
2013-01-25 02:09:00,63.6,57.4,29.94,ENE,78,2.0,-999.0,80,0.00,,,0.00,PyWeather,2013-01-25 12:09:00,
2013-01-25 02:11:00,63.5,57.3,29.94,East,79,2.0,-999.0,80,0.00,,,0.00,PyWeather,2013-01-25 12:11:00,
2013-01-25 02:12:00,63.5,57.3,29.94,ENE,78,2.0,-999.0,80,0.00,,,0.00,PyWeather,2013-01-25 12:12:00,
2013-01-25 02:13:00,63.8,57.9,29.95,ENE,78,2.0,-999.0,81,0.00,,,0.00,PyWeather,2013-01-25 12:13:00,
2013-01-25 02:14:00,63.4,57.2,29.94,ENE,78,1.0,-999.0,80,0.00,,,0.00,PyWeather,2013-01-25 12:14:00,
2013-01-25 02:16:00,63.3,57.1,29.94,ENE,78,1.0,-999.0,80,0.00,,,0.00,PyWeather,2013-01-25 12:16:00,
2013-01-25 02:17:00,63.2,57.0,29.94,East,80,1.0,-999.0,80,0.00,,,0.00,PyWeather,2013-01-25 12:17:00,
2013-01-25 02:18:00,63.8,57.9,29.94,ENE,78,2.0,-999.0,81,0.00,,,0.00,PyWeather,2013-01-25 12:18:00,
2013-01-25 02:19:00,63.2,57.0,29.94,East,79,0.0,-999.0,80,0.00,,,0.00,PyWeather,2013-01-25 12:19:00,
2013-01-25 02:20:00,63.1,56.9,29.94,ENE,78,0.0,-999.0,80,0.00,,,0.00,PyWeather,2013-01-25 12:20:00,
2013-01-25 02:21:00,63.1,56.9,29.94,East,80,0.0,-999.0,80,0.00,,,0.00,PyWeather,2013-01-25 12:21:00,
2013-01-25 02:22:00,63.1,56.9,29.94,ENE,78,0.0,-999.0,80,0.00,,,0.00,PyWeather,2013-01-25 12:22:00,
2013-01-25 02:23:00,63.6,57.4,29.94,ENE,78,2.0,-999.0,80,0.00,,,0.00,PyWeather,2013-01-25 12:23:00,
2013-01-25 02:28:00,63.3,57.1,29.94,ENE,78,1.0,-999.0,80,0.00,,,0.00,PyWeather,2013-01-25 12:28:00,
2013-01-25 02:34:00,63.1,56.9,29.94,ENE,78,0.0,-999.0,80,0.00,,,0.00,PyWeather,2013-01-25 12:34:00,
2013-01-25 02:39:00,63.0,56.8,29.94,East,79,0.0,-999.0,80,0.00,,,0.00,PyWeather,2013-01-25 12:39:00,
2013-01-25 02:44:00,62.7,56.5,29.94,ENE,78,0.0,-999.0,80,0.00,,,0.00,PyWeather,2013-01-25 12:44:00,
2013-01-25 02:46:00,61.6,55.8,29.94,East,79,0.0,-999.0,81,0.00,,,0.00,PyWeather,2013-01-25 12:46:00,
2013-01-25 02:47:00,61.6,55.8,29.94,East,79,0.0,-999.0,81,0.00,,,0.00,PyWeather,2013-01-25 12:47:00,
2013-01-25 02:48:00,61.6,55.8,29.94,ENE,78,0.0,-999.0,81,0.00,,,0.00,PyWeather,2013-01-25 12:48:00,
2013-01-25 02:49:00,61.6,55.8,29.94,ENE,78,0.0,-999.0,81,0.00,,,0.00,PyWeather,2013-01-25 12:49:00,
2013-01-25 02:50:00,62.3,56.1,29.94,East,79,0.0,-999.0,80,0.00,,,0.00,PyWeather,2013-01-25 12:50:00,
2013-01-25 02:51:00,61.5,56.0,29.94,ENE,78,0.0,-999.0,82,0.00,,,0.00,PyWeather,2013-01-25 12:51:00,
2013-01-25 02:52:00,61.5,56.0,29.94,East,79,0.0,-999.0,82,0.00,,,0.00,PyWeather,2013-01-25 12:52:00,
2013-01-25 02:53:00,61.5,55.7,29.94,East,79,0.0,-999.0,81,0.00,,,0.00,PyWeather,2013-01-25 12:53:00,
2013-01-25 02:55:00,62.0,55.8,29.94,East,79,0.0,-999.0,80,0.00,,,0.00,PyWeather,2013-01-25 12:55:00,
2013-01-25 02:56:00,61.4,55.9,29.94,East,79,0.0,-999.0,82,0.00,,,0.00,PyWeather,2013-01-25 12:56:00,
2013-01-25 02:57:00,61.4,55.9,29.94,East,79,0.0,-999.0,82,0.00,,,0.00,PyWeather,2013-01-25 12:57:00,
2013-01-25 02:59:00,61.4,55.9,29.94,East,79,0.0,-999.0,82,0.00,,,0.00,PyWeather,2013-01-25 12:59:00,
2013-01-25 03:00:00,61.6,55.8,29.94,East,79,0.0,-999.0,81,0.00,,,0.00,PyWeather,2013-01-25 13:00:00,
2013-01-25 03:03:00,61.3,55.8,29.94,East,79,1.0,-999.0,82,0.00,,,0.00,PyWeather,2013-01-25 13:03:00,
2013-01-25 03:05:00,61.4,55.9,29.94,East,80,2.0,-999.0,82,0.00,,,0.00,PyWeather,2013-01-25 13:05:00,
2013-01-25 03:06:00,61.5,55.7,29.94,East,79,0.0,-999.0,81,0.00,,,0.00,PyWeather,2013-01-25 13:06:00,
2013-01-25 03:07:00,61.4,56.2,29.94,East,79,2.0,-999.0,83,0.00,,,0.00,PyWeather,2013-01-25 13:07:00,
2013-01-25 03:08:00,61.5,56.3,29.94,ENE,78,3.0,-999.0,83,0.00,,,0.00,PyWeather,2013-01-25 13:08:00,
2013-01-25 03:11:00,61.4,55.9,29.94,ENE,78,0.0,-999.0,82,0.00,,,0.00,PyWeather,2013-01-25 13:11:00,
2013-01-25 03:16:00,61.3,55.8,29.94,East,79,1.0,-999.0,82,0.00,,,0.00,PyWeather,2013-01-25 13:16:00,
2013-01-25 03:18:00,63.0,58.1,29.94,East,80,3.0,-999.0,84,0.00,,,0.00,PyWeather,2013-01-25 13:18:00,
2013-01-25 03:20:00,63.4,58.5,29.94,East,90,3.0,-999.0,84,0.00,,,0.00,PyWeather,2013-01-25 13:20:00,
2013-01-25 03:21:00,61.6,56.4,29.94,East,80,3.0,-999.0,83,0.00,,,0.00,PyWeather,2013-01-25 13:21:00,
2013-01-25 03:22:00,63.8,58.9,29.94,East,90,3.0,-999.0,84,0.00,,,0.00,PyWeather,2013-01-25 13:22:00,
2013-01-25 03:23:00,63.8,58.9,29.94,East,90,3.0,-999.0,84,0.00,,,0.00,PyWeather,2013-01-25 13:23:00,
2013-01-25 03:24:00,63.9,59.0,29.94,East,90,2.0,-999.0,84,0.00,,,0.00,PyWeather,2013-01-25 13:24:00,
2013-01-25 03:25:00,64.0,59.1,29.94,East,90,2.0,-999.0,84,0.00,,,0.00,PyWeather,2013-01-25 13:25:00,
2013-01-25 03:26:00,62.4,57.5,29.94,ENE,78,3.0,-999.0,84,0.00,,,0.00,PyWeather,2013-01-25 13:26:00,
2013-01-25 03:28:00,63.7,57.8,29.94,ENE,75,1.0,-999.0,81,0.00,,,0.00,PyWeather,2013-01-25 13:28:00,
2013-01-25 03:29:00,63.4,57.5,29.94,ENE,76,1.0,-999.0,81,0.00,,,0.00,PyWeather,2013-01-25 13:29:00,
2013-01-25 03:30:00,63.2,57.3,29.94,ENE,76,1.0,-999.0,81,0.00,,,0.00,PyWeather,2013-01-25 13:30:00,
2013-01-25 03:31:00,62.9,57.0,29.94,ENE,76,1.0,-999.0,81,0.00,,,0.00,PyWeather,2013-01-25 13:31:00,
2013-01-25 03:32:00,63.2,58.3,29.94,East,82,3.0,-999.0,84,0.00,,,0.00,PyWeather,2013-01-25 13:32:00,
2013-01-25 03:33:00,62.2,56.3,29.94,ENE,75,2.0,-999.0,81,0.00,,,0.00,PyWeather,2013-01-25 13:33:00,
2013-01-25 03:34:00,62.2,56.3,29.94,ENE,76,2.0,-999.0,81,0.00,,,0.00,PyWeather,2013-01-25 13:34:00,
2013-01-25 03:35:00,62.0,56.5,29.94,ENE,76,2.0,-999.0,82,0.00,,,0.00,PyWeather,2013-01-25 13:35:00,
2013-01-25 03:36:00,61.8,56.3,29.93,ENE,76,2.0,-999.0,82,0.00,,,0.00,PyWeather,2013-01-25 13:36:00,
2013-01-25 03:37:00,63.9,59.0,29.94,East,90,2.0,-999.0,84,0.00,,,0.00,PyWeather,2013-01-25 13:37:00,
2013-01-25 03:38:00,61.6,56.4,29.94,ENE,76,2.0,-999.0,83,0.00,,,0.00,PyWeather,2013-01-25 13:38:00,
2013-01-25 03:39:00,61.5,56.3,29.93,ENE,76,2.0,-999.0,83,0.00,,,0.00,PyWeather,2013-01-25 13:39:00,
2013-01-25 03:42:00,63.6,57.7,29.94,ENE,76,1.0,-999.0,81,0.00,,,0.00,PyWeather,2013-01-25 13:42:00,
2013-01-25 03:43:00,61.3,56.4,29.94,ENE,76,2.0,-999.0,84,0.00,,,0.00,PyWeather,2013-01-25 13:43:00,
2013-01-25 03:46:00,61.4,56.5,29.94,ENE,76,2.0,-999.0,84,0.00,,,0.00,PyWeather,2013-01-25 13:46:00,
2013-01-25 03:47:00,62.2,56.7,29.94,ENE,75,2.0,-999.0,82,0.00,,,0.00,PyWeather,2013-01-25 13:47:00,
2013-01-25 03:52:00,61.5,56.3,29.93,ENE,76,2.0,-999.0,83,0.00,,,0.00,PyWeather,2013-01-25 13:52:00,
2013-01-25 03:53:00,61.4,56.9,29.94,ENE,76,2.0,-999.0,85,0.00,,,0.00,PyWeather,2013-01-25 13:53:00,
2013-01-25 03:57:00,61.3,56.4,29.94,ENE,75,2.0,-999.0,84,0.00,,,0.00,PyWeather,2013-01-25 13:57:00,
2013-01-25 04:02:00,61.3,56.4,29.94,ENE,75,2.0,-999.0,84,0.00,,,0.00,PyWeather,2013-01-25 14:02:00,
2013-01-25 04:07:00,61.4,56.9,29.94,ENE,76,2.0,-999.0,85,0.00,,,0.00,PyWeather,2013-01-25 14:07:00,
2013-01-25 04:12:00,61.3,56.8,29.94,ENE,75,2.0,-999.0,85,0.00,,,0.00,PyWeather,2013-01-25 14:12:00,
2013-01-25 04:17:00,61.5,57.0,29.94,ENE,75,1.0,-999.0,85,0.00,,,0.00,PyWeather,2013-01-25 14:17:00,
2013-01-25 04:21:00,63.1,58.8,29.94,ENE,76,3.0,-999.0,86,0.00,,,0.00,PyWeather,2013-01-25 14:21:00,
2013-01-25 04:22:00,61.9,58.0,29.94,ENE,76,1.0,-999.0,87,0.00,,,0.00,PyWeather,2013-01-25 14:22:00,
2013-01-25 04:23:00,63.0,58.7,29.94,ENE,76,2.0,-999.0,86,0.00,,,0.00,PyWeather,2013-01-25 14:23:00,
2013-01-25 04:24:00,63.0,58.7,29.94,ENE,76,2.0,-999.0,86,0.00,,,0.00,PyWeather,2013-01-25 14:24:00,
2013-01-25 04:25:00,63.0,58.7,29.94,ENE,76,2.0,-999.0,86,0.00,,,0.00,PyWeather,2013-01-25 14:25:00,
2013-01-25 04:26:00,63.1,58.8,29.94,ENE,76,2.0,-999.0,86,0.00,,,0.00,PyWeather,2013-01-25 14:26:00,
2013-01-25 04:27:00,62.4,58.5,29.94,ENE,75,2.0,-999.0,87,0.00,,,0.00,PyWeather,2013-01-25 14:27:00,
2013-01-25 04:28:00,63.1,59.2,29.94,ENE,75,1.0,-999.0,87,0.00,,,0.00,PyWeather,2013-01-25 14:28:00,
2013-01-25 04:29:00,63.1,58.8,29.94,ENE,76,1.0,-999.0,86,0.00,,,0.00,PyWeather,2013-01-25 14:29:00,
2013-01-25 04:30:00,63.1,58.8,29.94,ENE,76,1.0,-999.0,86,0.00,,,0.00,PyWeather,2013-01-25 14:30:00,
2013-01-25 04:31:00,63.0,58.7,29.94,ENE,75,1.0,-999.0,86,0.00,,,0.00,PyWeather,2013-01-25 14:31:00,
2013-01-25 04:32:00,63.1,59.2,29.94,ENE,76,3.0,-999.0,87,0.00,,,0.00,PyWeather,2013-01-25 14:32:00,
2013-01-25 04:33:00,62.9,58.7,29.94,ENE,75,0.0,-999.0,86,0.00,,,0.00,PyWeather,2013-01-25 14:33:00,
2013-01-25 04:34:00,63.0,59.1,29.94,ENE,75,0.0,-999.0,87,0.00,,,0.00,PyWeather,2013-01-25 14:34:00,
2013-01-25 04:35:00,63.1,59.2,29.94,ENE,76,0.0,-999.0,87,0.00,,,0.00,PyWeather,2013-01-25 14:35:00,
2013-01-25 04:36:00,63.2,59.3,29.94,ENE,76,0.0,-999.0,87,0.00,,,0.00,PyWeather,2013-01-25 14:36:00,
2013-01-25 04:37:00,63.0,58.7,29.94,ENE,76,2.0,-999.0,86,0.00,,,0.00,PyWeather,2013-01-25 14:37:00,
2013-01-25 04:38:00,63.2,59.3,29.94,ENE,76,0.0,-999.0,87,0.00,,,0.00,PyWeather,2013-01-25 14:38:00,
2013-01-25 04:39:00,63.2,58.9,29.94,ENE,76,0.0,-999.0,86,0.00,,,0.00,PyWeather,2013-01-25 14:39:00,
2013-01-25 04:42:00,63.1,58.8,29.94,ENE,75,1.0,-999.0,86,0.00,,,0.00,PyWeather,2013-01-25 14:42:00,
2013-01-25 04:43:00,62.6,58.0,29.94,ENE,75,0.0,-999.0,85,0.00,,,0.00,PyWeather,2013-01-25 14:43:00,
2013-01-25 04:44:00,62.4,57.8,29.94,ENE,76,0.0,-999.0,85,0.00,,,0.00,PyWeather,2013-01-25 14:44:00,
2013-01-25 04:45:00,62.1,57.5,29.94,ENE,75,1.0,-999.0,85,0.00,,,0.00,PyWeather,2013-01-25 14:45:00,
2013-01-25 04:47:00,63.0,59.1,29.94,ENE,76,0.0,-999.0,87,0.00,,,0.00,PyWeather,2013-01-25 14:47:00,
2013-01-25 04:48:00,61.7,57.5,29.94,NNE,32,2.0,-999.0,86,0.00,,,0.00,PyWeather,2013-01-25 14:48:00,
2013-01-25 04:49:00,61.7,57.8,29.94,NNE,32,2.0,-999.0,87,0.00,,,0.00,PyWeather,2013-01-25 14:49:00,
2013-01-25 04:50:00,61.9,58.3,29.94,NNE,32,3.0,-999.0,88,0.00,,,0.00,PyWeather,2013-01-25 14:50:00,
2013-01-25 04:52:00,63.2,58.9,29.94,ENE,75,0.0,-999.0,86,0.00,,,0.00,PyWeather,2013-01-25 14:52:00,
2013-01-25 04:54:00,62.2,58.3,29.94,NNE,32,3.0,-999.0,87,0.00,,,0.00,PyWeather,2013-01-25 14:54:00,
2013-01-25 04:55:00,62.2,58.3,29.94,NNE,32,3.0,-999.0,87,0.00,,,0.00,PyWeather,2013-01-25 14:55:00,
2013-01-25 04:57:00,62.2,58.6,29.94,NNE,32,3.0,-999.0,88,0.00,,,0.00,PyWeather,2013-01-25 14:57:00,
2013-01-25 04:58:00,62.3,57.7,29.94,ENE,76,0.0,-999.0,85,0.00,,,0.00,PyWeather,2013-01-25 14:58:00,
2013-01-25 04:59:00,62.3,58.4,29.94,NNE,31,2.0,-999.0,87,0.00,,,0.00,PyWeather,2013-01-25 14:59:00,
2013-01-25 05:01:00,62.3,58.4,29.94,NNE,32,2.0,-999.0,87,0.00,,,0.00,PyWeather,2013-01-25 15:01:00,
2013-01-25 05:02:00,62.3,58.7,29.94,NNE,31,2.0,-999.0,88,0.00,,,0.00,PyWeather,2013-01-25 15:02:00,
2013-01-25 05:03:00,61.8,57.9,29.94,NNE,31,3.0,-999.0,87,0.00,,,0.00,PyWeather,2013-01-25 15:03:00,
2013-01-25 05:04:00,62.5,58.9,29.94,NNE,32,2.0,-999.0,88,0.00,,,0.00,PyWeather,2013-01-25 15:04:00,
2013-01-25 05:05:00,62.5,58.9,29.94,NNE,32,2.0,-999.0,88,0.00,,,0.00,PyWeather,2013-01-25 15:05:00,
2013-01-25 05:06:00,62.5,58.6,29.94,NNE,32,2.0,-999.0,87,0.00,,,0.00,PyWeather,2013-01-25 15:06:00,
2013-01-25 05:08:00,62.2,58.3,29.94,NNE,32,3.0,-999.0,87,0.00,,,0.00,PyWeather,2013-01-25 15:08:00,
2013-01-25 05:13:00,62.3,58.4,29.94,NNE,31,2.0,-999.0,87,0.00,,,0.00,PyWeather,2013-01-25 15:13:00,
2013-01-25 05:14:00,62.1,58.2,29.94,NNE,32,2.0,-999.0,87,0.00,,,0.00,PyWeather,2013-01-25 15:14:00,
2013-01-25 05:15:00,62.0,58.1,29.94,NNE,31,2.0,-999.0,87,0.00,,,0.00,PyWeather,2013-01-25 15:15:00,
2013-01-25 05:16:00,61.9,58.0,29.94,NNE,31,2.0,-999.0,87,0.00,,,0.00,PyWeather,2013-01-25 15:16:00,
2013-01-25 05:17:00,61.8,57.9,29.94,NNE,32,2.0,-999.0,87,0.00,,,0.00,PyWeather,2013-01-25 15:17:00,
2013-01-25 05:18:00,62.5,58.9,29.94,NNE,32,2.0,-999.0,88,0.00,,,0.00,PyWeather,2013-01-25 15:18:00,
2013-01-25 05:19:00,61.6,57.7,29.94,NNE,31,2.0,-999.0,87,0.00,,,0.00,PyWeather,2013-01-25 15:19:00,
2013-01-25 05:20:00,61.5,57.6,29.94,NNE,31,2.0,-999.0,87,0.00,,,0.00,PyWeather,2013-01-25 15:20:00,
2013-01-25 05:21:00,61.5,57.6,29.94,NNE,32,2.0,-999.0,87,0.00,,,0.00,PyWeather,2013-01-25 15:21:00,
2013-01-25 05:23:00,61.4,57.5,29.94,NNE,32,2.0,-999.0,87,0.00,,,0.00,PyWeather,2013-01-25 15:23:00,
2013-01-25 05:24:00,62.2,58.3,29.94,NNE,31,1.0,-999.0,87,0.00,,,0.00,PyWeather,2013-01-25 15:24:00,
2013-01-25 05:25:00,61.4,57.8,29.94,NNE,32,3.0,-999.0,88,0.00,,,0.00,PyWeather,2013-01-25 15:25:00,
2013-01-25 05:26:00,61.4,57.8,29.94,NNE,32,3.0,-999.0,88,0.00,,,0.00,PyWeather,2013-01-25 15:26:00,
2013-01-25 05:27:00,61.4,57.5,29.94,NNE,32,2.0,-999.0,87,0.00,,,0.00,PyWeather,2013-01-25 15:27:00,
2013-01-25 05:28:00,61.4,57.5,29.94,NNE,32,2.0,-999.0,87,0.00,,,0.00,PyWeather,2013-01-25 15:28:00,
2013-01-25 05:29:00,61.9,58.0,29.94,NNE,32,2.0,-999.0,87,0.00,,,0.00,PyWeather,2013-01-25 15:29:00,
2013-01-25 05:30:00,61.3,57.7,29.94,NNE,32,2.0,-999.0,88,0.00,,,0.00,PyWeather,2013-01-25 15:30:00,
2013-01-25 05:31:00,61.3,57.7,29.94,NNE,32,2.0,-999.0,88,0.00,,,0.00,PyWeather,2013-01-25 15:31:00,
2013-01-25 05:32:00,61.4,57.8,29.94,NNE,32,2.0,-999.0,88,0.00,,,0.00,PyWeather,2013-01-25 15:32:00,
2013-01-25 05:34:00,61.5,57.6,29.94,NNE,31,2.0,-999.0,87,0.00,,,0.00,PyWeather,2013-01-25 15:34:00,
2013-01-25 05:37:00,61.6,58.0,29.94,NNE,32,3.0,-999.0,88,0.00,,,0.00,PyWeather,2013-01-25 15:37:00,
2013-01-25 05:38:00,61.7,58.1,29.94,NNE,31,3.0,-999.0,88,0.00,,,0.00,PyWeather,2013-01-25 15:38:00,
2013-01-25 05:39:00,61.4,57.8,29.94,NNE,32,3.0,-999.0,88,0.00,,,0.00,PyWeather,2013-01-25 15:39:00,
2013-01-25 05:40:00,61.6,58.0,29.94,NNE,32,3.0,-999.0,88,0.00,,,0.00,PyWeather,2013-01-25 15:40:00,
2013-01-25 05:41:00,61.6,58.0,29.94,NNE,32,2.0,-999.0,88,0.00,,,0.00,PyWeather,2013-01-25 15:41:00,
2013-01-25 05:42:00,61.6,57.7,29.94,NNE,32,2.0,-999.0,87,0.00,,,0.00,PyWeather,2013-01-25 15:42:00,
2013-01-25 05:44:00,61.6,57.7,29.94,NNE,32,2.0,-999.0,87,0.00,,,0.00,PyWeather,2013-01-25 15:44:00,
2013-01-25 05:45:00,61.4,57.8,29.94,NNE,32,2.0,-999.0,88,0.00,,,0.00,PyWeather,2013-01-25 15:45:00,
2013-01-25 05:46:00,61.6,58.0,29.94,NNE,32,2.0,-999.0,88,0.00,,,0.00,PyWeather,2013-01-25 15:46:00,
2013-01-25 05:47:00,61.6,58.0,29.94,NNE,32,2.0,-999.0,88,0.00,,,0.00,PyWeather,2013-01-25 15:47:00,
2013-01-25 05:48:00,61.6,58.0,29.94,NNE,32,2.0,-999.0,88,0.00,,,0.00,PyWeather,2013-01-25 15:48:00,
2013-01-25 05:49:00,61.6,58.0,29.94,NNE,31,2.0,-999.0,88,0.00,,,0.00,PyWeather,2013-01-25 15:49:00,
2013-01-25 05:50:00,61.6,58.0,29.94,NNE,32,3.0,-999.0,88,0.00,,,0.00,PyWeather,2013-01-25 15:50:00,
2013-01-25 05:51:00,61.5,57.6,29.95,NNE,32,2.0,-999.0,87,0.00,,,0.00,PyWeather,2013-01-25 15:51:00,
2013-01-25 05:52:00,61.5,57.6,29.95,NNE,32,2.0,-999.0,87,0.00,,,0.00,PyWeather,2013-01-25 15:52:00,
2013-01-25 05:53:00,61.4,57.5,29.95,NNE,31,2.0,-999.0,87,0.00,,,0.00,PyWeather,2013-01-25 15:53:00,
2013-01-25 05:54:00,61.4,57.5,29.95,NNE,32,3.0,-999.0,87,0.00,,,0.00,PyWeather,2013-01-25 15:54:00,
2013-01-25 05:55:00,61.6,58.0,29.94,NNE,32,2.0,-999.0,88,0.00,,,0.00,PyWeather,2013-01-25 15:55:00,
2013-01-25 05:56:00,61.4,57.5,29.95,NNE,32,3.0,-999.0,87,0.00,,,0.00,PyWeather,2013-01-25 15:56:00,
2013-01-25 05:58:00,61.4,57.5,29.95,NNE,32,3.0,-999.0,87,0.00,,,0.00,PyWeather,2013-01-25 15:58:00,
2013-01-25 05:59:00,61.4,57.8,29.95,NE,34,3.0,-999.0,88,0.00,,,0.00,PyWeather,2013-01-25 15:59:00,
2013-01-25 06:00:00,61.6,58.0,29.94,NNE,32,2.0,-999.0,88,0.00,,,0.00,PyWeather,2013-01-25 16:00:00,
2013-01-25 06:01:00,61.6,58.0,29.95,NE,36,3.0,-999.0,88,0.00,,,0.00,PyWeather,2013-01-25 16:01:00,
2013-01-25 06:03:00,61.6,58.0,29.95,NE,37,3.0,-999.0,88,0.00,,,0.00,PyWeather,2013-01-25 16:03:00,
2013-01-25 06:04:00,61.6,58.0,29.95,NE,36,3.0,-999.0,88,0.00,,,0.00,PyWeather,2013-01-25 16:04:00,
2013-01-25 06:05:00,61.5,57.6,29.95,NNE,32,2.0,-999.0,87,0.00,,,0.00,PyWeather,2013-01-25 16:05:00,
2013-01-25 06:06:00,61.7,58.1,29.95,NE,37,3.0,-999.0,88,0.00,,,0.00,PyWeather,2013-01-25 16:06:00,
2013-01-25 06:07:00,61.7,58.1,29.95,NE,36,3.0,-999.0,88,0.00,,,0.00,PyWeather,2013-01-25 16:07:00,
2013-01-25 06:08:00,61.8,58.2,29.95,NE,38,3.0,-999.0,88,0.00,,,0.00,PyWeather,2013-01-25 16:08:00,
2013-01-25 06:09:00,61.9,58.3,29.95,NE,38,3.0,-999.0,88,0.00,,,0.00,PyWeather,2013-01-25 16:09:00,
2013-01-25 06:10:00,61.4,57.5,29.95,NNE,32,3.0,-999.0,87,0.00,,,0.00,PyWeather,2013-01-25 16:10:00,
2013-01-25 06:11:00,62.1,58.5,29.95,NE,38,3.0,-999.0,88,0.00,,,0.00,PyWeather,2013-01-25 16:11:00,
2013-01-25 06:12:00,62.2,58.6,29.95,NE,53,3.0,-999.0,88,0.00,,,0.00,PyWeather,2013-01-25 16:12:00,
2013-01-25 06:13:00,62.3,58.7,29.95,NE,55,3.0,-999.0,88,0.00,,,0.00,PyWeather,2013-01-25 16:13:00,
2013-01-25 06:14:00,62.3,58.7,29.95,NE,55,3.0,-999.0,88,0.00,,,0.00,PyWeather,2013-01-25 16:14:00,
2013-01-25 06:15:00,62.3,58.7,29.95,NE,55,3.0,-999.0,88,0.00,,,0.00,PyWeather,2013-01-25 16:15:00,
2013-01-25 06:16:00,61.6,58.0,29.95,NE,36,3.0,-999.0,88,0.00,,,0.00,PyWeather,2013-01-25 16:16:00,
2013-01-25 06:17:00,62.4,58.5,29.95,NE,55,3.0,-999.0,87,0.00,,,0.00,PyWeather,2013-01-25 16:17:00,
2013-01-25 06:18:00,62.4,58.5,29.95,NE,55,3.0,-999.0,87,0.00,,,0.00,PyWeather,2013-01-25 16:18:00,
2013-01-25 06:19:00,62.3,58.4,29.95,NE,55,3.0,-999.0,87,0.00,,,0.00,PyWeather,2013-01-25 16:19:00,
2013-01-25 06:20:00,62.2,58.3,29.95,NE,55,3.0,-999.0,87,0.00,,,0.00,PyWeather,2013-01-25 16:20:00,
2013-01-25 06:21:00,62.2,58.3,29.95,NE,55,3.0,-999.0,87,0.00,,,0.00,PyWeather,2013-01-25 16:21:00,
2013-01-25 06:22:00,61.8,58.2,29.95,NE,38,3.0,-999.0,88,0.00,,,0.00,PyWeather,2013-01-25 16:22:00,
2013-01-25 06:23:00,62.1,58.2,29.95,NE,55,3.0,-999.0,87,0.00,,,0.00,PyWeather,2013-01-25 16:23:00,
2013-01-25 06:24:00,62.1,58.2,29.95,NE,55,3.0,-999.0,87,0.00,,,0.00,PyWeather,2013-01-25 16:24:00,
2013-01-25 06:25:00,62.1,58.2,29.95,NE,55,2.0,-999.0,87,0.00,,,0.00,PyWeather,2013-01-25 16:25:00,
2013-01-25 06:26:00,62.1,58.2,29.95,NE,55,2.0,-999.0,87,0.00,,,0.00,PyWeather,2013-01-25 16:26:00,
2013-01-25 06:27:00,62.3,58.7,29.95,NE,55,3.0,-999.0,88,0.00,,,0.00,PyWeather,2013-01-25 16:27:00,
2013-01-25 06:29:00,62.0,58.1,29.95,NE,55,2.0,-999.0,87,0.00,,,0.00,PyWeather,2013-01-25 16:29:00,
2013-01-25 06:30:00,61.9,58.0,29.95,NE,55,1.0,-999.0,87,0.00,,,0.00,PyWeather,2013-01-25 16:30:00,
2013-01-25 06:31:00,61.9,58.0,29.95,NE,55,1.0,-999.0,87,0.00,,,0.00,PyWeather,2013-01-25 16:31:00,
2013-01-25 06:32:00,62.3,58.4,29.95,NE,55,3.0,-999.0,87,0.00,,,0.00,PyWeather,2013-01-25 16:32:00,
2013-01-25 06:33:00,61.9,57.7,29.95,NE,55,1.0,-999.0,86,0.00,,,0.00,PyWeather,2013-01-25 16:33:00,
2013-01-25 06:34:00,61.8,57.6,29.95,NE,55,1.0,-999.0,86,0.00,,,0.00,PyWeather,2013-01-25 16:34:00,
2013-01-25 06:35:00,61.8,57.6,29.95,NE,55,0.0,-999.0,86,0.00,,,0.00,PyWeather,2013-01-25 16:35:00,
2013-01-25 06:36:00,61.7,57.5,29.96,NE,55,0.0,-999.0,86,0.00,,,0.00,PyWeather,2013-01-25 16:36:00,
2013-01-25 06:37:00,62.1,58.2,29.95,NE,56,3.0,-999.0,87,0.00,,,0.00,PyWeather,2013-01-25 16:37:00,
2013-01-25 06:38:00,61.5,57.3,29.96,NE,55,0.0,-999.0,86,0.00,,,0.00,PyWeather,2013-01-25 16:38:00,
2013-01-25 06:39:00,61.4,57.2,29.95,NE,55,0.0,-999.0,86,0.00,,,0.00,PyWeather,2013-01-25 16:39:00,
2013-01-25 06:40:00,61.4,57.2,29.95,NE,55,0.0,-999.0,86,0.00,,,0.00,PyWeather,2013-01-25 16:40:00,
2013-01-25 06:41:00,61.4,57.2,29.95,NE,55,0.0,-999.0,86,0.00,,,0.00,PyWeather,2013-01-25 16:41:00,
2013-01-25 06:42:00,62.0,58.1,29.95,NE,56,2.0,-999.0,87,0.00,,,0.00,PyWeather,2013-01-25 16:42:00,
2013-01-25 06:43:00,61.4,57.2,29.95,NE,55,0.0,-999.0,86,0.00,,,0.00,PyWeather,2013-01-25 16:43:00,
2013-01-25 06:47:00,61.8,57.6,29.95,NE,55,1.0,-999.0,86,0.00,,,0.00,PyWeather,2013-01-25 16:47:00,
2013-01-25 06:52:00,61.5,57.3,29.95,NE,55,0.0,-999.0,86,0.00,,,0.00,PyWeather,2013-01-25 16:52:00,
2013-01-25 06:57:00,61.4,57.2,29.95,NE,56,0.0,-999.0,86,0.00,,,0.00,PyWeather,2013-01-25 16:57:00,
2013-01-25 07:02:00,61.3,57.4,29.96,NE,55,0.0,-999.0,87,0.00,,,0.00,PyWeather,2013-01-25 17:02:00,
2013-01-25 07:07:00,61.4,57.5,29.96,NE,55,0.0,-999.0,87,0.00,,,0.00,PyWeather,2013-01-25 17:07:00,
2013-01-25 07:12:00,61.3,57.1,29.96,NE,55,0.0,-999.0,86,0.00,,,0.00,PyWeather,2013-01-25 17:12:00,
2013-01-25 07:17:00,61.2,57.0,29.96,NE,55,1.0,-999.0,86,0.00,,,0.00,PyWeather,2013-01-25 17:17:00,
2013-01-25 07:19:00,61.1,57.2,29.96,NE,55,2.0,-999.0,87,0.00,,,0.00,PyWeather,2013-01-25 17:19:00,
2013-01-25 07:20:00,61.2,57.3,29.96,NE,55,2.0,-999.0,87,0.00,,,0.00,PyWeather,2013-01-25 17:20:00,
2013-01-25 07:21:00,61.2,57.3,29.96,NE,55,2.0,-999.0,87,0.00,,,0.00,PyWeather,2013-01-25 17:21:00,
2013-01-25 07:23:00,61.2,57.0,29.96,NE,55,3.0,-999.0,86,0.00,,,0.00,PyWeather,2013-01-25 17:23:00,
2013-01-25 07:24:00,61.5,57.6,29.96,NE,55,2.0,-999.0,87,0.00,,,0.00,PyWeather,2013-01-25 17:24:00,
2013-01-25 07:25:00,61.5,57.6,29.96,NE,55,2.0,-999.0,87,0.00,,,0.00,PyWeather,2013-01-25 17:25:00,
2013-01-25 07:26:00,61.6,58.0,29.96,NE,55,2.0,-999.0,88,0.00,,,0.00,PyWeather,2013-01-25 17:26:00,
2013-01-25 07:27:00,61.6,58.0,29.96,NE,55,2.0,-999.0,88,0.00,,,0.00,PyWeather,2013-01-25 17:27:00,
2013-01-25 07:28:00,61.1,57.2,29.96,NE,55,3.0,-999.0,87,0.00,,,0.00,PyWeather,2013-01-25 17:28:00,
2013-01-25 07:29:00,61.9,58.3,29.96,NE,55,2.0,-999.0,88,0.00,,,0.00,PyWeather,2013-01-25 17:29:00,
2013-01-25 07:30:00,61.9,58.3,29.96,NE,55,2.0,-999.0,88,0.00,,,0.00,PyWeather,2013-01-25 17:30:00,
2013-01-25 07:31:00,62.1,58.5,29.96,NE,55,2.0,-999.0,88,0.00,,,0.00,PyWeather,2013-01-25 17:31:00,
2013-01-25 07:32:00,62.2,58.6,29.96,NE,55,2.0,-999.0,88,0.00,,,0.00,PyWeather,2013-01-25 17:32:00,
2013-01-25 07:33:00,61.1,57.2,29.96,NE,55,2.0,-999.0,87,0.00,,,0.00,PyWeather,2013-01-25 17:33:00,
2013-01-25 07:34:00,62.5,58.9,29.96,NE,55,2.0,-999.0,88,0.00,,,0.00,PyWeather,2013-01-25 17:34:00,
2013-01-25 07:35:00,62.6,59.0,29.96,NE,55,1.0,-999.0,88,0.00,,,0.00,PyWeather,2013-01-25 17:35:00,
2013-01-25 07:37:00,62.9,59.3,29.96,NE,55,1.0,-999.0,88,0.00,,,0.00,PyWeather,2013-01-25 17:37:00,
2013-01-25 07:38:00,62.9,59.3,29.96,NE,55,1.0,-999.0,88,0.00,,,0.00,PyWeather,2013-01-25 17:38:00,
2013-01-25 07:39:00,61.5,57.6,29.96,NE,55,2.0,-999.0,87,0.00,,,0.00,PyWeather,2013-01-25 17:39:00,
2013-01-25 07:41:00,63.5,59.9,29.96,NE,55,0.0,-999.0,88,0.00,,,0.00,PyWeather,2013-01-25 17:41:00,
2013-01-25 07:42:00,63.6,60.0,29.96,NE,55,0.0,-999.0,88,0.00,,,0.00,PyWeather,2013-01-25 17:42:00,
2013-01-25 07:44:00,62.0,58.4,29.96,NE,54,2.0,-999.0,88,0.00,,,0.00,PyWeather,2013-01-25 17:44:00,
2013-01-25 07:45:00,64.0,60.4,29.96,NE,55,0.0,-999.0,88,0.00,,,0.00,PyWeather,2013-01-25 17:45:00,
2013-01-25 07:47:00,64.3,60.7,29.96,NE,55,0.0,-999.0,88,0.00,,,0.00,PyWeather,2013-01-25 17:47:00,
2013-01-25 07:48:00,64.5,60.9,29.96,NE,55,0.0,-999.0,88,0.00,,,0.00,PyWeather,2013-01-25 17:48:00,
2013-01-25 07:49:00,62.6,59.0,29.96,NE,56,1.0,-999.0,88,0.00,,,0.00,PyWeather,2013-01-25 17:49:00,
2013-01-25 07:51:00,64.9,61.3,29.96,NE,55,0.0,-999.0,88,0.00,,,0.00,PyWeather,2013-01-25 17:51:00,
2013-01-25 07:52:00,65.1,61.4,29.96,NE,55,0.0,-999.0,88,0.00,,,0.00,PyWeather,2013-01-25 17:52:00,
2013-01-25 07:55:00,63.5,59.9,29.96,NE,55,0.0,-999.0,88,0.00,,,0.00,PyWeather,2013-01-25 17:55:00,
2013-01-25 07:56:00,65.5,61.5,29.96,NE,55,0.0,-999.0,87,0.00,,,0.00,PyWeather,2013-01-25 17:56:00,
2013-01-25 07:57:00,65.6,61.6,29.96,NE,55,0.0,-999.0,87,0.00,,,0.00,PyWeather,2013-01-25 17:57:00,
2013-01-25 07:58:00,65.7,61.7,29.96,NE,55,0.0,-999.0,87,0.00,,,0.00,PyWeather,2013-01-25 17:58:00,
2013-01-25 08:00:00,64.2,60.6,29.96,NE,55,0.0,-999.0,88,0.00,,,0.00,PyWeather,2013-01-25 18:00:00,
2013-01-25 08:01:00,66.1,62.1,29.96,NE,55,0.0,-999.0,87,0.00,,,0.00,PyWeather,2013-01-25 18:01:00,
2013-01-25 08:03:00,66.2,62.2,29.96,NE,55,0.0,-999.0,87,0.00,,,0.00,PyWeather,2013-01-25 18:03:00,
2013-01-25 08:05:00,65.0,61.3,29.96,NE,55,0.0,-999.0,88,0.00,,,0.00,PyWeather,2013-01-25 18:05:00,
2013-01-25 08:06:00,66.5,62.2,29.96,NE,55,0.0,-999.0,86,0.00,,,0.00,PyWeather,2013-01-25 18:06:00,
2013-01-25 08:08:00,66.7,62.4,29.96,NE,55,0.0,-999.0,86,0.00,,,0.00,PyWeather,2013-01-25 18:08:00,
2013-01-25 08:09:00,66.8,62.5,29.96,NE,55,0.0,-999.0,86,0.00,,,0.00,PyWeather,2013-01-25 18:09:00,
2013-01-25 08:10:00,65.7,61.7,29.96,NE,55,0.0,-999.0,87,0.00,,,0.00,PyWeather,2013-01-25 18:10:00,
2013-01-25 08:12:00,67.1,62.8,29.95,NE,55,0.0,-999.0,86,0.00,,,0.00,PyWeather,2013-01-25 18:12:00,
2013-01-25 08:14:00,67.3,63.0,29.96,NE,55,0.0,-999.0,86,0.00,,,0.00,PyWeather,2013-01-25 18:14:00,
2013-01-25 08:15:00,66.1,62.1,29.96,NE,55,0.0,-999.0,87,0.00,,,0.00,PyWeather,2013-01-25 18:15:00,
2013-01-25 08:16:00,67.5,63.2,29.96,NE,55,0.0,-999.0,86,0.00,,,0.00,PyWeather,2013-01-25 18:16:00,
2013-01-25 08:17:00,67.6,63.0,29.96,NE,56,0.0,-999.0,85,0.00,,,0.00,PyWeather,2013-01-25 18:17:00,
2013-01-25 08:18:00,67.7,63.0,29.96,NE,55,0.0,-999.0,85,0.00,,,0.00,PyWeather,2013-01-25 18:18:00,
2013-01-25 08:20:00,67.8,63.5,29.96,NE,55,0.0,-999.0,86,0.00,,,0.00,PyWeather,2013-01-25 18:20:00,
2013-01-25 08:21:00,66.6,62.3,29.96,NE,56,0.0,-999.0,86,0.00,,,0.00,PyWeather,2013-01-25 18:21:00,
2013-01-25 08:22:00,68.1,63.4,29.96,NE,55,0.0,-999.0,85,0.00,,,0.00,PyWeather,2013-01-25 18:22:00,
2013-01-25 08:23:00,68.1,63.4,29.96,NE,55,0.0,-999.0,85,0.00,,,0.00,PyWeather,2013-01-25 18:23:00,
2013-01-25 08:24:00,68.2,63.5,29.96,NE,56,0.0,-999.0,85,0.00,,,0.00,PyWeather,2013-01-25 18:24:00,
2013-01-25 08:25:00,68.4,63.7,29.96,NE,55,0.0,-999.0,85,0.00,,,0.00,PyWeather,2013-01-25 18:25:00,
2013-01-25 08:26:00,67.2,62.9,29.96,NE,56,0.0,-999.0,86,0.00,,,0.00,PyWeather,2013-01-25 18:26:00,
2013-01-25 08:27:00,68.6,63.9,29.96,NE,55,0.0,-999.0,85,0.00,,,0.00,PyWeather,2013-01-25 18:27:00,
2013-01-25 08:28:00,68.7,64.0,29.96,NE,56,0.0,-999.0,85,0.00,,,0.00,PyWeather,2013-01-25 18:28:00,
2013-01-25 08:29:00,68.8,64.1,29.96,NE,55,0.0,-999.0,85,0.00,,,0.00,PyWeather,2013-01-25 18:29:00,
2013-01-25 08:30:00,69.0,64.3,29.96,NE,55,0.0,-999.0,85,0.00,,,0.00,PyWeather,2013-01-25 18:30:00,
2013-01-25 08:31:00,67.6,63.0,29.96,NE,55,0.0,-999.0,85,0.00,,,0.00,PyWeather,2013-01-25 18:31:00,
2013-01-25 08:32:00,69.5,64.8,29.96,NE,55,0.0,-999.0,85,0.00,,,0.00,PyWeather,2013-01-25 18:32:00,
2013-01-25 08:33:00,69.7,64.7,29.96,NE,55,0.0,-999.0,84,0.00,,,0.00,PyWeather,2013-01-25 18:33:00,
2013-01-25 08:34:00,69.8,64.8,29.96,NE,55,1.0,-999.0,84,0.00,,,0.00,PyWeather,2013-01-25 18:34:00,
2013-01-25 08:35:00,70.1,65.4,29.96,NE,56,1.0,-999.0,85,0.00,,,0.00,PyWeather,2013-01-25 18:35:00,
2013-01-25 08:36:00,70.3,65.3,29.96,NE,55,1.0,-999.0,84,0.00,,,0.00,PyWeather,2013-01-25 18:36:00,
2013-01-25 08:37:00,68.2,63.5,29.96,NE,55,0.0,-999.0,85,0.00,,,0.00,PyWeather,2013-01-25 18:37:00,
2013-01-25 08:43:00,68.9,64.2,29.96,NE,55,0.0,-999.0,85,0.00,,,0.00,PyWeather,2013-01-25 18:43:00,
2013-01-25 08:48:00,69.9,64.9,29.96,NE,55,1.0,-999.0,84,0.00,,,0.00,PyWeather,2013-01-25 18:48:00,